Tracking 28794 objects as of 19-Apr-2024
HD Live streaming from Space Station
objects crossing your sky now

DELTA 1 DEB

Track DELTA 1 DEB now!
10-day predictions


NORAD ID: 26833
Int'l Code: 1975-052KM
Perigee: 1,091.0 km
Apogee: 1,659.7 km
Inclination: 99.7 °
Period: 113.1 minutes
Semi major axis: 7746 km
RCS: 0.01 m2 (small)
Launch date: June 12, 1975
Source: United States (US)
Launch site: AIR FORCE WESTERN TEST RANGE (AFWTR)

Note: This is SATELLITE DEBRIS
Your satellite tracking list
Your tracking list is empty




NASA's NSSDC Master Catalog

Two Line Element Set (TLE):
1 26833U 75052KM  24110.55000171  .00000186  00000-0  81447-3 0  9990
2 26833  99.6788 142.7636 0367104 237.7381 284.7768 12.73380112549246
Source of the keplerian elements: AFSPC